EW1669 Weather Reports


Display with metric or nautical units.
time (UTC)temp
F
wind
direction
speed
MPH
gust
MPH
rain 1hr
in
rain 24hr
in
rain mn
in
humidity
%
barometer
mb
20260508043208 60 159 0.0 0.0 0.00 0.00 0.00 39 1016.7
20260508042554 60 158 0.0 0.0 0.00 0.00 0.00 39 1016.7
20260508042000 60 159 0.0 0.0 0.00 0.00 0.00 39 1016.3
20260508041345 60 159 0.0 0.0 0.00 0.00 0.00 39 1016.7
20260508040744 61 158 0.0 0.0 0.00 0.00 0.00 38 1016.7
20260508040159 61 161 0.0 0.0 0.00 0.00 0.00 38 1016.3
20260508035558 61 158 0.0 0.0 0.00 0.00 0.00 38 1016.7
20260508034945 62 157 0.0 0.0 0.00 0.00 0.00 37 1016.7
20260508034353 62 156 0.0 0.0 0.00 0.00 0.00 36 1016.7
20260508033745 63 153 0.0 0.0 0.00 0.00 0.00 36 1016.3
20260508033158 63 151 0.0 0.0 0.00 0.00 0.00 36 1016.3
20260508032554 63 153 0.0 0.0 0.00 0.00 0.00 35 1016.7
20260508032012 64 155 0.0 0.0 0.00 0.00 0.00 35 1016.3
20260508031349 64 144 0.0 0.0 0.00 0.00 0.00 34 1016.3
20260508030741 65 155 0.0 0.0 0.00 0.00 0.00 33 1016.0
20260508030425 65 152 0.0 0.0 0.00 0.00 0.00 33 1016.0
20260508025654 65 160 0.0 0.0 0.00 0.00 0.00 33 1016.0
20260508025054 66 142 0.0 1.0 0.00 0.00 0.00 32 1016.0
20260508024554 66 166 0.0 1.0 0.00 0.00 0.00 32 1016.0
20260508024016 66 161 0.0 4.0 0.00 0.00 0.00 31 1015.6
20260508023337 67 144 3.0 4.0 0.00 0.00 0.00 30 1016.0
20260508022750 67 145 0.0 0.0 0.00 0.00 0.00 29 1016.0
20260508022137 67 147 0.0 0.0 0.00 0.00 0.00 26 1015.6
20260508021548 68 162 0.0 0.0 0.00 0.00 0.00 24 1015.6
20260508020958 69 175 0.0 0.0 0.00 0.00 0.00 24 1015.6
20260508020350 69 200 0.0 0.0 0.00 0.00 0.00 23 1015.3
20260508015812 70 210 0.0 0.0 0.00 0.00 0.00 22 1015.6
20260508015151 70 153 0.0 0.0 0.00 0.00 0.00 22 1015.3
20260508014552 71 142 0.0 1.0 0.00 0.00 0.00 21 1015.3
20260508014309 71 153 0.0 2.0 0.00 0.00 0.00 22 1015.3
20260508013500 71 191 0.0 2.0 0.00 0.00 0.00 22 1015.0
20260508012849 72 202 0.0 1.0 0.00 0.00 0.00 22 1015.0
20260508012247 72 204 0.0 1.0 0.00 0.00 0.00 21 1015.3
20260508011651 73 214 0.0 1.0 0.00 0.00 0.00 21 1015.3
20260508011052 73 226 0.0 2.0 0.00 0.00 0.00 21 1015.3
20260508010449 73 207 0.0 0.0 0.00 0.00 0.00 21 1015.0
20260508005852 73 200 0.0 0.0 0.00 0.00 0.00 20 1015.0
20260508005732 74 202 0.0 7.0 0.00 0.00 0.00 20 1015.3
20260508004906 74 215 2.0 7.0 0.00 0.00 0.00 20 1015.3
20260508004055 74 159 0.0 8.0 0.00 0.00 0.00 20 1015.3
20260508003444 74 212 6.0 8.0 0.00 0.00 0.00 21 1015.0
20260508003115 74 201 0.0 4.0 0.00 0.00 0.00 21 1015.3
20260508002251 74 217 0.0 10.0 0.00 0.00 0.00 20 1015.3
20260508001654 74 224 5.0 10.0 0.00 0.00 0.00 20 1015.3
20260508001055 74 224 7.0 9.0 0.00 0.00 0.00 19 1015.3
20260508000551 74 218 0.0 1.0 0.00 0.00 0.00 21 1015.3
20260507235954 74 177 0.0 9.0 0.00 0.00 0.00 22 1015.3
20260507235354 75 233 2.0 3.0 0.00 0.00 0.00 21 1015.3
20260507234751 74 196 0.0 4.0 0.00 0.00 0.00 21 1015.3
20260507234150 74 140 0.0 4.0 0.00 0.00 0.00 22 1015.3
20260507233613 74 215 0.0 2.0 0.00 0.00 0.00 22 1015.3
20260507232956 74 210 1.0 9.0 0.00 0.00 0.00 22 1015.3
20260507232352 75 207 0.0 2.0 0.00 0.00 0.00 22 1015.6
20260507231752 75 181 0.0 4.0 0.00 0.00 0.00 23 1015.6
20260507231212 74 186 0.0 4.0 0.00 0.00 0.00 22 1015.6
20260507230549 74 199 0.0 2.0 0.00 0.00 0.00 23 1016.0
20260507230011 75 227 0.0 1.0 0.00 0.00 0.00 23 1015.6
20260507225356 75 215 0.0 8.0 0.00 0.00 0.00 23 1015.6
20260507225012 74 201 4.0 8.0 0.00 0.00 0.00 22 1015.6
20260507224417 76 153 6.0 8.0 0.00 0.00 0.00 24 1016.0
20260507223817 75 150 0.0 0.0 0.00 0.00 0.00 24 1015.6
20260507222952 74 184 0.0 8.0 0.00 0.00 0.00 25 1016.0
20260507222608 74 132 4.0 8.0 0.00 0.00 0.00 25 1016.0
20260507221803 75 221 0.0 2.0 0.00 0.00 0.00 25 1016.0
20260507221258 75 181 0.0 4.0 0.00 0.00 0.00 25 1016.0
20260507220652 73 174 0.0 3.0 0.00 0.00 0.00 25 1016.0
20260507220052 75 177 1.0 3.0 0.00 0.00 0.00 26 1016.0
20260507215502 73 214 0.0 10.0 0.00 0.00 0.00 25 1016.3
20260507214850 74 142 0.0 13.0 0.00 0.00 0.00 26 1016.7
20260507214304 74 221 1.0 4.0 0.00 0.00 0.00 26 1016.3
20260507213712 74 184 0.0 1.0 0.00 0.00 0.00 26 1016.7
20260507213054 73 202 0.0 3.0 0.00 0.00 0.00 27 1016.7
20260507212451 74 190 0.0 7.0 0.00 0.00 0.00 27 1016.7
20260507211943 74 195 3.0 7.0 0.00 0.00 0.00 27 1017.0
20260507211407 74 193 0.0 3.0 0.00 0.00 0.00 27 1017.3
20260507210844 72 156 1.0 7.0 0.00 0.00 0.00 29 1017.3
20260507210243 73 156 4.0 7.0 0.00 0.00 0.00 28 1017.3
20260507205650 73 210 0.0 3.0 0.00 0.00 0.00 28 1017.3
20260507205059 72 198 0.0 6.0 0.00 0.00 0.00 29 1017.3
20260507204555 73 187 0.0 6.0 0.00 0.00 0.00 27 1017.7
20260507204037 72 203 0.0 6.0 0.00 0.00 0.00 29 1017.7
20260507203713 71 159 0.0 0.0 0.00 0.00 0.00 30 1018.0
20260507202857 71 179 0.0 4.0 0.00 0.00 0.00 29 1018.0
20260507202255 70 105 1.0 4.0 0.00 0.00 0.00 30 1018.0
20260507201056 70 216 0.0 6.0 0.00 0.00 0.00 31 1018.3
20260507200455 70 218 1.0 8.0 0.00 0.00 0.00 31 1018.3
20260507195908 69 211 4.0 8.0 0.00 0.00 0.00 32 1018.7
20260507195351 69 183 0.0 6.0 0.00 0.00 0.00 31 1018.7
20260507194747 70 162 0.0 2.0 0.00 0.00 0.00 33 1018.7
20260507194427 69 198 1.0 4.0 0.00 0.00 0.00 34 1018.7
20260507193551 68 193 0.0 2.0 0.00 0.00 0.00 34 1018.7
20260507193221 68 195 0.0 1.0 0.00 0.00 0.00 36 1018.7
20260507192413 69 105 0.0 1.0 0.00 0.00 0.00 34 1019.0
20260507191853 67 204 0.0 3.0 0.00 0.00 0.00 37 1019.0
20260507191310 67 200 0.0 3.0 0.00 0.00 0.00 37 1019.4
20260507190656 66 185 0.0 2.0 0.00 0.00 0.00 38 1019.4
20260507190052 66 181 0.0 9.0 0.00 0.00 0.00 38 1019.4
20260507185503 65 121 0.0 0.0 0.00 0.00 0.00 39 1019.7
20260507184858 66 144 0.0 0.0 0.00 0.00 0.00 39 1020.0
20260507184259 67 170 0.0 0.0 0.00 0.00 0.00 38 1019.7
20260507183711 66 220 0.0 4.0 0.00 0.00 0.00 40 1020.0
20260507183049 63 204 0.0 7.0 0.00 0.00 0.00 43 1019.7
20260507182508 65 225 0.0 6.0 0.00 0.00 0.00 41 1020.0
20260507181847 65 188 0.0 1.0 0.00 0.00 0.00 40 1020.0
20260507181255 64 203 0.0 4.0 0.00 0.00 0.00 42 1020.0
20260507180650 62 188 1.0 10.0 0.00 0.00 0.00 44 1020.4
20260507180103 63 186 0.0 10.0 0.00 0.00 0.00 43 1020.4
20260507175449 62 202 0.0 8.0 0.00 0.00 0.00 46 1020.7
20260507174838 61 170 0.0 2.0 0.00 0.00 0.00 45 1020.4
20260507174311 61 213 0.0 7.0 0.00 0.00 0.00 45 1020.7
20260507173700 59 203 0.0 7.0 0.00 0.00 0.00 48 1021.1
20260507173054 62 191 4.0 7.0 0.00 0.00 0.00 45 1021.1
20260507172449 60 191 6.0 7.0 0.00 0.00 0.00 48 1021.1
20260507171856 59 164 1.0 6.0 0.00 0.00 0.00 49 1021.1
20260507171250 60 191 0.0 1.0 0.00 0.00 0.00 48 1021.1
20260507170700 59 191 0.0 1.0 0.00 0.00 0.00 49 1021.1
20260507170311 58 145 0.0 6.0 0.00 0.00 0.00 49 1021.1
20260507165441 58 185 0.0 1.0 0.00 0.00 0.00 48 1021.4
20260507165131 57 195 0.0 6.0 0.00 0.00 0.00 50 1021.1
20260507164532 56 178 0.0 2.0 0.00 0.00 0.00 53 1021.4
20260507163655 57 189 1.0 2.0 0.00 0.00 0.00 49 1021.4
20260507163111 56 166 0.0 1.0 0.00 0.00 0.00 52 1021.7
20260507162454 56 172 0.0 8.0 0.00 0.00 0.00 52 1021.4
20260507161849 55 223 7.0 8.0 0.00 0.00 0.00 53 1021.7
20260507161303 55 223 0.0 1.0 0.00 0.00 0.00 53 1021.7
20260507160643 54 148 0.0 1.0 0.00 0.00 0.00 54 1021.4
20260507160040 53 194 0.0 7.0 0.00 0.00 0.00 56 1021.7
20260507155459 53 154 4.0 9.0 0.00 0.00 0.00 55 1021.7
20260507154935 53 164 5.0 9.0 0.00 0.00 0.00 55 1021.7
20260507154345 53 149 0.0 6.0 0.00 0.00 0.00 55 1021.7
20260507154008 51 180 0.0 6.0 0.00 0.00 0.00 58 1021.7
20260507153149 51 159 0.0 2.0 0.00 0.00 0.00 58 1021.7
20260507152559 51 145 0.0 8.0 0.00 0.00 0.00 58 1022.4
20260507152052 52 176 7.0 8.0 0.00 0.00 0.00 57 1021.7
20260507151930 51 197 1.0 3.0 0.00 0.00 0.00 58 1022.1
20260507150851 51 136 0.0 4.0 0.00 0.00 0.00 58 1022.1
20260507150250 51 152 0.0 4.0 0.00 0.00 0.00 58 1022.1
20260507145654 50 199 0.0 0.0 0.00 0.00 0.00 59 1022.4
20260507145050 50 163 0.0 3.0 0.00 0.00 0.00 60 1022.1
20260507144511 49 138 0.0 0.0 0.00 0.00 0.00 63 1022.1
20260507143854 49 149 0.0 0.0 0.00 0.00 0.00 62 1022.1
20260507143308 48 147 0.0 0.0 0.00 0.00 0.00 64 1022.4
20260507142943 48 132 0.0 0.0 0.00 0.00 0.00 65 1022.1
20260507142140 48 135 0.0 1.0 0.00 0.00 0.00 66 1022.1
20260507141613 48 16 0.0 1.0 0.00 0.00 0.00 65 1022.4
20260507141013 48 6 0.0 0.0 0.00 0.00 0.00 66 1022.8
20260507140354 47 6 0.0 0.0 0.00 0.00 0.00 74 1022.4
20260507135754 45 6 0.0 0.0 0.00 0.00 0.00 79 1022.4
20260507135151 44 6 0.0 0.0 0.00 0.00 0.00 83 1022.8
20260507134551 43 7 0.0 0.0 0.00 0.00 0.00 86 1022.8
20260507133954 42 7 0.0 0.0 0.00 0.00 0.00 89 1022.8
20260507133354 42 7 0.0 0.0 0.00 0.00 0.00 90 1022.4
20260507132754 41 7 0.0 0.0 0.00 0.00 0.00 91 1022.4
20260507132135 40 7 0.0 0.0 0.00 0.00 0.00 91 1022.8
20260507131559 39 8 0.0 0.0 0.00 0.00 0.00 91 1022.4
20260507131003 39 8 0.0 0.0 0.00 0.00 0.00 91 1022.4
20260507130411 38 8 0.0 0.0 0.00 0.00 0.00 91 1022.4
20260507125746 38 8 0.0 0.0 0.00 0.00 0.00 91 1022.4
20260507125151 37 8 0.0 0.0 0.00 0.00 0.00 90 1022.1
20260507124627 37 8 0.0 0.0 0.00 0.00 0.00 90 1022.4
20260507124052 37 8 0.0 0.0 0.00 0.00 0.00 90 1022.4
20260507123717 36 8 0.0 0.0 0.00 0.00 0.00 90 1022.4
20260507122854 35 8 0.0 0.0 0.00 0.00 0.00 90 1022.1
20260507122525 35 8 0.0 0.0 0.00 0.00 0.00 90 1022.1
20260507121912 35 8 0.0 2.0 0.00 0.00 0.00 90 1022.1
20260507121054 36 8 0.0 0.0 0.00 0.00 0.00 89 1022.1
20260507120453 36 7 0.0 0.0 0.00 0.00 0.00 89 1022.1
20260507115846 37 7 0.0 0.0 0.00 0.00 0.00 89 1022.1
20260507115513 37 8 0.0 0.0 0.00 0.00 0.00 89 1022.1
20260507114751 38 8 0.0 0.0 0.00 0.00 0.00 89 1021.7
20260507114152 38 8 0.0 0.0 0.00 0.00 0.00 89 1021.7
20260507113551 38 8 0.0 0.0 0.00 0.00 0.00 89 1021.4
20260507112952 38 8 0.0 0.0 0.00 0.00 0.00 88 1021.7
20260507112616 38 8 0.0 0.0 0.00 0.00 0.00 88 1021.7
20260507111757 38 8 0.0 0.0 0.00 0.00 0.00 88 1021.4
20260507111154 38 8 0.0 0.0 0.00 0.00 0.00 88 1021.7
20260507110605 38 8 0.0 0.0 0.00 0.00 0.00 88 1021.7
20260507110230 38 8 0.0 0.0 0.00 0.00 0.00 87 1021.4
20260507105346 38 8 0.0 0.0 0.00 0.00 0.00 87 1021.7
20260507104741 38 8 0.0 0.0 0.00 0.00 0.00 87 1021.7
20260507104633 38 8 0.0 0.0 0.00 0.00 0.00 87 1021.4
20260507103608 38 8 0.0 0.0 0.00 0.00 0.00 86 1021.4
20260507103201 38 8 0.0 0.0 0.00 0.00 0.00 86 1021.4
20260507102353 38 8 0.0 0.0 0.00 0.00 0.00 86 1021.4
20260507101754 39 8 0.0 0.0 0.00 0.00 0.00 85 1021.4
20260507101146 39 8 0.0 0.0 0.00 0.00 0.00 85 1021.7
20260507100551 39 9 0.0 0.0 0.00 0.00 0.00 85 1021.4
20260507095954 39 9 0.0 0.0 0.00 0.00 0.00 84 1021.4
20260507095350 39 9 0.0 0.0 0.00 0.00 0.00 84 1021.4
20260507094743 40 9 0.0 0.0 0.00 0.00 0.00 83 1021.4
20260507094227 40 9 0.0 0.0 0.00 0.00 0.00 83 1021.7
20260507093702 40 9 0.0 0.0 0.00 0.00 0.00 82 1021.4
20260507093105 40 9 0.0 0.0 0.00 0.00 0.00 82 1021.4
20260507092448 40 9 0.0 0.0 0.00 0.00 0.00 80 1021.4
20260507091903 41 9 0.0 0.0 0.00 0.00 0.00 79 1021.4
20260507091253 41 9 0.0 0.0 0.00 0.00 0.00 78 1021.4
20260507090722 41 9 0.0 0.0 0.00 0.00 0.00 77 1021.4
20260507090152 41 9 0.0 0.0 0.00 0.00 0.00 76 1021.7
20260507085551 42 9 0.0 0.0 0.00 0.00 0.00 75 1021.4
20260507085217 42 9 0.0 0.0 0.00 0.00 0.00 75 1021.4
20260507084359 42 9 0.0 0.0 0.00 0.00 0.00 74 1021.1
20260507083757 42 9 0.0 0.0 0.00 0.00 0.00 74 1021.4
20260507083412 43 9 0.0 0.0 0.00 0.00 0.00 74 1021.4
20260507082601 43 9 0.0 1.0 0.00 0.00 0.00 73 1021.4
20260507082017 43 29 0.0 1.0 0.00 0.00 0.00 72 1021.7
20260507081353 43 60 0.0 1.0 0.00 0.00 0.00 72 1021.1
20260507080753 44 72 0.0 1.0 0.00 0.00 0.00 72 1021.1
20260507080419 44 84 0.0 4.0 0.00 0.00 0.00 72 1020.7
20260507075545 44 60 1.0 7.0 0.00 0.00 0.00 72 1020.7
20260507074952 44 86 2.0 7.0 0.00 0.00 0.00 73 1020.7
20260507074350 44 109 2.0 11.0 0.00 0.00 0.00 73 1020.7
20260507073756 44 105 1.0 11.0 0.00 0.00 0.00 73 1020.7
20260507073411 44 71 4.0 8.0 0.00 0.00 0.00 74 1021.1
20260507072551 44 106 2.0 14.0 0.00 0.00 0.00 74 1021.4
20260507071953 44 16 5.0 14.0 0.00 0.00 0.00 74 1021.7
20260507071342 44 31 0.0 3.0 0.00 0.00 0.00 75 1021.4
20260507070750 44 23 1.0 3.0 0.00 0.00 0.00 75 1021.7
20260507070153 44 83 0.0 2.0 0.00 0.00 0.00 75 1021.7
20260507065549 44 17 0.0 2.0 0.00 0.00 0.00 75 1022.1
20260507064952 44 16 0.0 4.0 0.00 0.00 0.00 74 1022.1
20260507064353 44 8 0.0 7.0 0.00 0.00 0.00 74 1021.7
20260507063749 44 18 3.0 7.0 0.00 0.00 0.00 73 1022.1
20260507063621 45 20 4.0 7.0 0.00 0.00 0.00 73 1021.7
20260507062546 45 22 0.0 4.0 0.00 0.00 0.00 72 1022.1
20260507061947 45 25 0.0 9.0 0.00 0.00 0.00 72 1022.1
20260507061345 45 5 5.0 9.0 0.00 0.00 0.00 71 1021.7
20260507060750 45 4 0.0 8.0 0.00 0.00 0.00 71 1022.1
20260507060152 45 347 2.0 14.0 0.00 0.00 0.00 71 1021.7
20260507055548 45 17 8.0 13.0 0.00 0.00 0.00 72 1022.1
20260507054958 45 355 0.0 9.0 0.00 0.00 0.00 72 1022.1
20260507054839 45 349 6.0 9.0 0.00 0.00 0.00 71 1021.7
20260507053747 45 0 2.0 10.0 0.00 0.00 0.00 71 1021.7
20260507053148 46 8 6.0 10.0 0.00 0.00 0.00 71 1021.4
20260507052550 46 8 8.0 10.0 0.00 0.00 0.00 70 1021.7
20260507051953 46 11 2.0 14.0 0.00 0.00 0.00 69 1021.4
20260507051350 46 9 10.0 14.0 0.00 0.00 0.00 68 1021.4
20260507050750 47 7 9.0 13.0 0.00 0.00 0.00 67 1021.4
20260507050154 46 10 7.0 13.0 0.00 0.00 0.00 67 1021.4
20260507045549 47 359 9.0 14.0 0.00 0.00 0.00 66 1021.4
20260507045212 47 2 6.0 16.0 0.00 0.00 0.00 66 1021.4
20260507044337 47 52 6.0 13.0 0.00 0.00 0.00 65 1021.4
20260507043736 47 9 5.0 14.0 0.00 0.00 0.00 65 1021.1